Погода в Ладыгах

Украина / Хмельницкая область     49°44′55″N   27°28′11″E
темп.,
°C
ветер,
м/с
пор.,
м/с
влажн.,
%
обл.,
%
осадки,
мм/ч
давл.,
гПа
погр.,
м
11 мая, вт
вт1100:00+9юв36840 0.0 102385
03:00+8юв37840 0.0 1023106
06:00+6юв36820 0.0 1023104
09:00+12вюв45600 0.0 1023406
12:00+16вюв34410 0.0 10211025
15:00+18вюв34460 0.0 10191280
18:00+19в45550 0.0 10181136
21:00+13в46810 0.0 101890
12 мая, ср
ср1200:00+11в34900 0.0 101764
03:00+10в36950 0.0 1016103
06:00+10в599596 0.0 1016396
09:00+11вюв79700 0.0 1016719
12:00+13в675727 0.0 10151423
15:00+11в776425 0.0 10151125
18:00+11вюв5768100 0.0 10151275
21:00+9в2575100 0.0 1013173
13 мая, чт
чт1300:00+6вюв349228 0.0 101254
03:00+5вюв3494100 0.0 101179
06:00+4юв389632 0.0 1010154
09:00+10юв697187 0.0 1009700
12:00+9юв71290100 0.2 1008702
15:00+11юв71488100 0.3 1007919
18:00+14ююв81382100 0.7 10061027
21:00+11ююв71393100 0.8 1006649
14 мая, пт
пт1400:00+11ююв61196100 1.6 1006592
03:00+10ююв4109580 2.4 1006353
06:00+8ююв48966 0.0 1006167
09:00+13ююв4582100 0.0 1006403
12:00+16ю4571100 0.0 1006767
15:00+14ююз5786100 3.6 1006497
18:00+14ююз3686100 1.6 1007262
21:00+12з338681 2.6 100734
15 мая, сб
сб1500:00+9зюз36905 0.0 100986
03:00+8з34915 0.0 101067
06:00+7зюз359329 0.0 101184
09:00+13юз357670 0.0 1011502
12:00+17зюз45635 0.3 10111269
15:00+17з346571 1.6 1010984
18:00+17ю016399 1.2 1010811
21:00+13в2280100 2.7 101011